Bartlesville, OK

9:08 AM CDT on September 19, 2017 (GMT -0500)
Bartlesville Municipal

Weather History for KBVO - November, 2012

Change the Weather History Date:

Thursday, November 29, 2012

  Actual Average Record
Temperature  
Mean Temperature 50 °F -  
Max Temperature 70 °F 54 °F 83 °F (1949)
Min Temperature 30 °F 31 °F 3 °F (1976)
Degree Days  
Heating Degree Days 15    
Moisture  
Dew Point 34 °F    
Average Humidity 59    
Maximum Humidity 92    
Minimum Humidity 22    
Precipitation  
Precipitation 0.00 in - - ()
Sea Level Pressure  
Sea Level Pressure 30.09 in    
Wind  
Wind Speed 6 mph (South)    
Max Wind Speed 18 mph    
Max Gust Speed 29 mph    
Visibility 10 miles    
Events      
Averages and records for this station are not official NWS values.
T = Trace of Precipitation, MM = Missing Value Source: NWS Daily Summary

Daily Weather History Graph

Daily Weather History Graph

Search for Another Location

Airport or City:

Trip Planner

Search our weather history database for the weather conditions in past years. The results will help you decide how hot, cold, wet, or windy it might be!

Date:

Astronomy

Nov. 29, 2012 Rise Set
Actual Time 7:16 AM CST 5:08 PM CST
Civil Twilight 6:48 AM CST 5:36 PM CST
Nautical Twilight 6:16 AM CST 6:08 PM CST
Astronomical Twilight 5:45 AM CST 6:39 PM CST
Moon 6:12 PM CST (11/29) 8:04 AM CST (11/29)
Length of Visible Light 10h 48m
Length of Day
9h 51m
Full, 99% of the Moon is Illuminated
Nov 29
Full
Dec 6
Last Quarter
Dec 13
New
Dec 19
First Quarter
Dec 28
Full

Hourly Weather History & Observations

Time (CST) Temp. Windchill Dew Point Humidity Pressure Visibility Wind Dir Wind Speed Gust Speed Precip Events Conditions
12:53 AM 30.9 °F - 28.9 °F 92% 30.19 in 10.0 mi Calm Calm - N/A   Clear
1:53 AM 36.0 °F 32.1 °F 33.1 °F 89% 30.17 in 10.0 mi South 4.6 mph - N/A   Clear
2:53 AM 35.1 °F 32.2 °F 32.0 °F 89% 30.17 in 10.0 mi South 3.5 mph - N/A   Clear
3:53 AM 37.9 °F 33.5 °F 33.1 °F 83% 30.15 in 10.0 mi South 5.8 mph - N/A   Clear
4:53 AM 37.9 °F 33.5 °F 33.1 °F 83% 30.15 in 10.0 mi South 5.8 mph - N/A   Clear
5:53 AM 37.9 °F 33.5 °F 33.1 °F 83% 30.15 in 10.0 mi South 5.8 mph - N/A   Clear
6:53 AM 37.0 °F 32.4 °F 33.1 °F 86% 30.14 in 10.0 mi South 5.8 mph - N/A   Clear
7:53 AM 39.9 °F 35.1 °F 34.0 °F 79% 30.14 in 10.0 mi South 6.9 mph - N/A   Clear
8:53 AM 46.0 °F 42.5 °F 37.0 °F 71% 30.14 in 10.0 mi South 6.9 mph - N/A   Clear
9:53 AM 53.1 °F - 37.9 °F 57% 30.12 in 10.0 mi South 11.5 mph 23.0 mph N/A   Clear
10:53 AM 57.9 °F - 39.0 °F 49% 30.12 in 10.0 mi South 9.2 mph 19.6 mph N/A   Clear
11:53 AM 63.0 °F - 41.0 °F 45% 30.09 in 10.0 mi South 13.8 mph 21.9 mph N/A   Clear
12:53 PM 66.9 °F - 39.0 °F 36% 30.06 in 10.0 mi SSW 15.0 mph 23.0 mph N/A   Clear
1:53 PM 70.0 °F - 33.1 °F 26% 30.03 in 10.0 mi SSW 15.0 mph 28.8 mph N/A   Clear
2:53 PM 70.0 °F - 30.0 °F 23% 30.00 in 10.0 mi South 18.4 mph 26.5 mph N/A   Clear
3:53 PM 68.0 °F - 28.0 °F 22% 29.99 in 10.0 mi South 13.8 mph 21.9 mph N/A   Clear
4:53 PM 64.0 °F - 28.9 °F 27% 29.99 in 10.0 mi South 8.1 mph - N/A   Clear
5:53 PM 59.0 °F - 30.9 °F 35% 30.01 in 10.0 mi South 8.1 mph - N/A   Clear
6:53 PM 57.0 °F - 32.0 °F 39% 30.04 in 10.0 mi SSW 5.8 mph - N/A   Clear
7:53 PM 52.0 °F - 33.1 °F 49% 30.06 in 10.0 mi South 3.5 mph - N/A   Clear
8:53 PM 52.0 °F - 35.1 °F 53% 30.06 in 10.0 mi South 5.8 mph - N/A   Clear
9:53 PM 53.1 °F - 36.0 °F 52% 30.06 in 10.0 mi South 4.6 mph - N/A   Clear
10:53 PM 48.0 °F - 35.1 °F 61% 30.07 in 10.0 mi Calm Calm - N/A   Clear
11:53 PM 42.1 °F - 35.1 °F 76% 30.08 in 10.0 mi Calm Calm - N/A   Clear